Location: ????
(55.5675°N, 37.6272°E)
Time: 21:34:44
(UTC+00:00)

Envisat - Pass Details

Date: 14 April 2026
Orbit: 761 x 762 km, 98.4° (Epoch: 11 May)

Event Time Altitude Azimuth Distance (km) Brightness Sun altitude
Rises 23:37:00 0° 19° (NNE) 3,240 7.7 -19.6°
Reaches altitude 10° 23:39:29 10° 28° (NNE) 2,309 6.7 -19.4°
Maximum altitude 23:44:13 38° 96° (E) 1,162 4.1 -19.0°
Enters shadow 23:48:00 15° 159° (SSE) 1,979 4.8 -18.7°
